Year,Month,Day,Hour,Minute,Value (Times are PST for temperature in C)
2016,08,13,00,00,20.20
2016,08,13,00,01,20.20
2016,08,13,00,02,20.20
2016,08,13,00,03,20.10
2016,08,13,00,04,20.10
2016,08,13,00,05,20.10
2016,08,13,00,06,20.10
2016,08,13,00,07,20.00
2016,08,13,00,08,20.00
2016,08,13,00,09,19.90
2016,08,13,00,10,19.90
2016,08,13,00,11,19.90
2016,08,13,00,12,19.90
2016,08,13,00,13,19.90
2016,08,13,00,14,19.80
2016,08,13,00,15,19.80
2016,08,13,00,16,19.80
2016,08,13,00,17,19.80
2016,08,13,00,18,19.70
2016,08,13,00,19,19.70
2016,08,13,00,20,19.70
2016,08,13,00,21,19.70
2016,08,13,00,22,19.60
2016,08,13,00,23,19.60
2016,08,13,00,24,19.60
2016,08,13,00,25,19.60
2016,08,13,00,26,19.60
2016,08,13,00,27,19.60
2016,08,13,00,28,19.60
2016,08,13,00,29,19.60
2016,08,13,00,30,19.50
2016,08,13,00,31,19.50
2016,08,13,00,32,19.50
2016,08,13,00,33,19.50
2016,08,13,00,34,19.50
2016,08,13,00,35,19.50
2016,08,13,00,36,19.50
2016,08,13,00,37,19.50
2016,08,13,00,38,19.50
2016,08,13,00,39,19.50
2016,08,13,00,40,19.50
2016,08,13,00,41,19.50
2016,08,13,00,42,19.50
2016,08,13,00,43,19.50
2016,08,13,00,44,19.60
2016,08,13,00,45,19.60
2016,08,13,00,46,19.60
2016,08,13,00,47,19.60
2016,08,13,00,48,19.60
2016,08,13,00,49,19.60
2016,08,13,00,50,19.50
2016,08,13,00,51,19.50
2016,08,13,00,52,19.50
2016,08,13,00,53,19.40
2016,08,13,00,54,19.40
2016,08,13,00,55,19.40
2016,08,13,00,56,19.40
2016,08,13,00,57,19.30
2016,08,13,00,58,19.30
2016,08,13,00,59,19.30
2016,08,13,01,00,19.30
2016,08,13,01,01,19.30
2016,08,13,01,02,19.30
2016,08,13,01,03,19.30
2016,08,13,01,04,19.30
2016,08,13,01,05,19.30
2016,08,13,01,06,19.30
2016,08,13,01,07,19.30
2016,08,13,01,08,19.30
2016,08,13,01,09,19.30
2016,08,13,01,10,19.30
2016,08,13,01,11,19.30
2016,08,13,01,12,19.20
2016,08,13,01,13,19.20
2016,08,13,01,14,19.20
2016,08,13,01,15,19.20
2016,08,13,01,16,19.20
2016,08,13,01,17,19.20
2016,08,13,01,18,19.20
2016,08,13,01,19,19.20
2016,08,13,01,20,19.20
2016,08,13,01,21,19.20
2016,08,13,01,22,19.10
2016,08,13,01,23,19.10
2016,08,13,01,24,19.10
2016,08,13,01,25,19.10
2016,08,13,01,26,19.10
2016,08,13,01,27,19.10
2016,08,13,01,28,19.10
2016,08,13,01,29,19.10
2016,08,13,01,30,19.20
2016,08,13,01,31,19.20
2016,08,13,01,32,19.20
2016,08,13,01,33,19.20
2016,08,13,01,34,19.20
2016,08,13,01,35,19.20
2016,08,13,01,36,19.20
2016,08,13,01,37,19.20
2016,08,13,01,38,19.20
2016,08,13,01,39,19.20
2016,08,13,01,40,19.20
2016,08,13,01,41,19.20
2016,08,13,01,42,19.20
2016,08,13,01,43,19.30
2016,08,13,01,44,19.20
2016,08,13,01,45,19.20
2016,08,13,01,46,19.30
2016,08,13,01,47,19.20
2016,08,13,01,48,19.20
2016,08,13,01,49,19.20
2016,08,13,01,50,19.20
2016,08,13,01,51,19.20
2016,08,13,01,52,19.20
2016,08,13,01,53,19.20
2016,08,13,01,54,19.20
2016,08,13,01,55,19.20
2016,08,13,01,56,19.20
2016,08,13,01,57,19.20
2016,08,13,01,58,19.30
2016,08,13,01,59,19.30
2016,08,13,02,00,19.30
2016,08,13,02,01,19.30
2016,08,13,02,02,19.30
2016,08,13,02,03,19.40
2016,08,13,02,04,19.40
2016,08,13,02,05,19.40
2016,08,13,02,06,19.40
2016,08,13,02,07,19.40
2016,08,13,02,08,19.40
2016,08,13,02,09,19.40
2016,08,13,02,10,19.40
2016,08,13,02,11,19.40
2016,08,13,02,12,19.40
2016,08,13,02,13,19.40
2016,08,13,02,14,19.40
2016,08,13,02,15,19.40
2016,08,13,02,16,19.30
2016,08,13,02,17,19.30
2016,08,13,02,18,19.30
2016,08,13,02,19,19.20
2016,08,13,02,20,19.20
2016,08,13,02,21,19.20
2016,08,13,02,22,19.20
2016,08,13,02,23,19.10
2016,08,13,02,24,19.10
2016,08,13,02,25,19.00
2016,08,13,02,26,19.00
2016,08,13,02,27,18.90
2016,08,13,02,28,18.90
2016,08,13,02,29,18.90
2016,08,13,02,30,18.90
2016,08,13,02,31,18.80
2016,08,13,02,32,18.80
2016,08,13,02,33,18.80
2016,08,13,02,34,18.70
2016,08,13,02,35,18.70
2016,08,13,02,36,18.70
2016,08,13,02,37,18.70
2016,08,13,02,38,18.70
2016,08,13,02,39,18.60
2016,08,13,02,40,18.60
2016,08,13,02,41,18.60
2016,08,13,02,42,18.60
2016,08,13,02,43,18.60
2016,08,13,02,44,18.60
2016,08,13,02,45,18.50
2016,08,13,02,46,18.50
2016,08,13,02,47,18.50
2016,08,13,02,48,18.50
2016,08,13,02,49,18.50
2016,08,13,02,50,18.50
2016,08,13,02,51,18.50
2016,08,13,02,52,18.50
2016,08,13,02,53,18.50
2016,08,13,02,54,18.50
2016,08,13,02,55,18.50
2016,08,13,02,56,18.50
2016,08,13,02,57,18.50
2016,08,13,02,58,18.50
2016,08,13,02,59,18.50
2016,08,13,03,00,18.50
2016,08,13,03,01,18.50
2016,08,13,03,02,18.50
2016,08,13,03,03,18.50
2016,08,13,03,04,18.50
2016,08,13,03,05,18.50
2016,08,13,03,06,18.50
2016,08,13,03,07,18.40
2016,08,13,03,08,18.40
2016,08,13,03,09,18.40
2016,08,13,03,10,18.40
2016,08,13,03,11,18.40
2016,08,13,03,12,18.40
2016,08,13,03,13,18.40
2016,08,13,03,14,18.30
2016,08,13,03,15,18.30
2016,08,13,03,16,18.30
2016,08,13,03,17,18.30
2016,08,13,03,18,18.30
2016,08,13,03,19,18.30
2016,08,13,03,20,18.30
2016,08,13,03,21,18.30
2016,08,13,03,22,18.30
2016,08,13,03,23,18.30
2016,08,13,03,24,18.30
2016,08,13,03,25,18.30
2016,08,13,03,26,18.30
2016,08,13,03,27,18.30
2016,08,13,03,28,18.20
2016,08,13,03,29,18.20
2016,08,13,03,30,18.20
2016,08,13,03,31,18.20
2016,08,13,03,32,18.20
2016,08,13,03,33,18.20
2016,08,13,03,34,18.20
2016,08,13,03,35,18.20
2016,08,13,03,36,18.20
2016,08,13,03,37,18.20
2016,08,13,03,38,18.20
2016,08,13,03,39,18.10
2016,08,13,03,40,18.10
2016,08,13,03,41,18.10
2016,08,13,03,42,18.10
2016,08,13,03,43,18.10
2016,08,13,03,44,18.10
2016,08,13,03,45,18.10
2016,08,13,03,46,18.00
2016,08,13,03,47,18.00
2016,08,13,03,48,18.00
2016,08,13,03,49,18.00
2016,08,13,03,50,18.00
2016,08,13,03,51,18.00
2016,08,13,03,52,17.90
2016,08,13,03,53,17.90
2016,08,13,03,54,17.90
2016,08,13,03,55,17.90
2016,08,13,03,56,17.90
2016,08,13,03,57,17.90
2016,08,13,03,58,17.90
2016,08,13,03,59,17.90
2016,08,13,04,00,17.80
2016,08,13,04,01,17.80
2016,08,13,04,02,17.80
2016,08,13,04,03,17.70
2016,08,13,05,04,17.20
2016,08,13,05,05,17.20
2016,08,13,05,06,17.20
2016,08,13,05,07,17.10
2016,08,13,05,08,17.10
2016,08,13,05,09,17.10
2016,08,13,05,10,17.10
2016,08,13,05,11,17.10
2016,08,13,05,12,17.00
2016,08,13,05,13,17.00
2016,08,13,05,14,17.00
2016,08,13,05,15,16.90
2016,08,13,05,16,16.90
2016,08,13,05,17,16.90
2016,08,13,05,18,16.90
2016,08,13,05,19,16.90
2016,08,13,05,20,16.90
2016,08,13,05,21,16.90
2016,08,13,05,22,16.90
2016,08,13,05,23,16.80
2016,08,13,05,24,16.80
2016,08,13,05,25,16.90
2016,08,13,05,26,16.90
2016,08,13,05,27,16.90
2016,08,13,05,28,16.80
2016,08,13,05,29,16.80
2016,08,13,05,30,16.80
2016,08,13,05,31,16.80
2016,08,13,05,32,16.80
2016,08,13,05,33,16.80
2016,08,13,05,34,16.80
2016,08,13,05,35,16.80
2016,08,13,05,36,16.80
2016,08,13,05,37,16.80
2016,08,13,05,38,16.80
2016,08,13,05,39,16.80
2016,08,13,05,40,16.80
2016,08,13,05,41,16.80
2016,08,13,05,42,16.80
2016,08,13,05,43,16.70
2016,08,13,05,44,16.70
2016,08,13,05,45,16.70
2016,08,13,05,46,16.70
2016,08,13,05,47,16.70
2016,08,13,05,48,16.70
2016,08,13,05,49,16.70
2016,08,13,05,50,16.70
2016,08,13,05,51,16.70
2016,08,13,05,52,16.70
2016,08,13,05,53,16.70
2016,08,13,05,54,16.70
2016,08,13,05,55,16.70
2016,08,13,05,56,16.80
2016,08,13,05,57,16.80
2016,08,13,05,58,16.80
2016,08,13,05,59,16.80
2016,08,13,06,00,16.80
2016,08,13,06,01,16.80
2016,08,13,06,02,16.80
2016,08,13,06,03,16.70
2016,08,13,06,04,16.70
2016,08,13,06,05,16.70
2016,08,13,06,06,16.70
2016,08,13,06,07,16.70
2016,08,13,06,08,16.70
2016,08,13,06,09,16.60
2016,08,13,06,10,16.60
2016,08,13,06,11,16.60
2016,08,13,06,12,16.60
2016,08,13,06,13,16.60
2016,08,13,06,14,16.50
2016,08,13,06,15,16.50
2016,08,13,06,16,16.50
2016,08,13,06,17,16.40
2016,08,13,06,18,16.40
2016,08,13,06,19,16.40
2016,08,13,06,20,16.40
2016,08,13,06,21,16.40
2016,08,13,06,22,16.40
2016,08,13,06,23,16.40
2016,08,13,06,24,16.40
2016,08,13,06,25,16.40
2016,08,13,06,26,16.40
2016,08,13,06,27,16.40
2016,08,13,06,28,16.40
2016,08,13,06,29,16.40
2016,08,13,06,30,16.40
2016,08,13,06,31,16.30
2016,08,13,06,32,16.30
2016,08,13,06,33,16.30
2016,08,13,06,34,16.30
2016,08,13,06,35,16.30
2016,08,13,06,36,16.30
2016,08,13,06,37,16.30
2016,08,13,06,38,16.30
2016,08,13,06,39,16.40
2016,08,13,06,40,16.40
2016,08,13,06,41,16.40
2016,08,13,06,42,16.40
2016,08,13,06,43,16.40
2016,08,13,06,44,16.40
2016,08,13,06,45,16.40
2016,08,13,06,46,16.40
2016,08,13,06,47,16.40
2016,08,13,06,48,16.50
2016,08,13,06,49,16.50
2016,08,13,06,50,16.50
2016,08,13,06,51,16.50
2016,08,13,06,52,16.60
2016,08,13,06,53,16.60
2016,08,13,06,54,16.60
2016,08,13,06,55,16.60
2016,08,13,06,56,16.60
2016,08,13,06,57,16.60
2016,08,13,06,58,16.70
2016,08,13,06,59,16.70
2016,08,13,07,00,16.70
2016,08,13,07,01,16.70
2016,08,13,07,02,16.70
2016,08,13,07,03,16.70
2016,08,13,07,04,16.70
2016,08,13,07,05,16.70
2016,08,13,07,06,16.70
2016,08,13,07,07,16.70
2016,08,13,07,08,16.70
2016,08,13,07,09,16.80
2016,08,13,07,10,16.80
2016,08,13,07,11,16.80
2016,08,13,07,12,16.80
2016,08,13,07,13,16.80
2016,08,13,07,14,16.90
2016,08,13,07,15,16.90
2016,08,13,07,16,16.90
2016,08,13,07,17,17.00
2016,08,13,07,18,17.10
2016,08,13,07,19,17.10
2016,08,13,07,20,17.20
2016,08,13,07,21,17.30
2016,08,13,07,22,17.30
2016,08,13,07,23,17.40
2016,08,13,07,24,17.40
2016,08,13,07,25,17.50
2016,08,13,07,26,17.60
2016,08,13,07,27,17.70
2016,08,13,07,28,17.80
2016,08,13,07,29,17.80
2016,08,13,07,30,18.00
2016,08,13,07,31,18.10
2016,08,13,07,32,18.10
2016,08,13,07,33,18.20
2016,08,13,07,34,18.30
2016,08,13,07,35,18.40
2016,08,13,07,36,18.50
2016,08,13,07,37,18.60
2016,08,13,07,38,18.70
2016,08,13,07,39,18.80
2016,08,13,07,40,18.90
2016,08,13,07,41,19.00
2016,08,13,07,42,19.10
2016,08,13,07,43,19.20
2016,08,13,07,44,19.30
2016,08,13,07,45,19.30
2016,08,13,07,46,19.40
2016,08,13,07,47,19.50
2016,08,13,07,48,19.50
2016,08,13,07,49,19.60
2016,08,13,07,50,19.60
2016,08,13,07,51,19.70
2016,08,13,07,52,19.70
2016,08,13,07,53,19.80
2016,08,13,07,54,19.80
2016,08,13,07,55,19.80
2016,08,13,07,56,19.80
2016,08,13,07,57,19.90
2016,08,13,07,58,19.90
2016,08,13,07,59,19.90
2016,08,13,08,00,19.90
2016,08,13,08,01,20.00
2016,08,13,08,02,20.10
2016,08,13,08,03,20.20
2016,08,13,08,04,20.30
2016,08,13,08,05,20.40
2016,08,13,08,06,20.50
2016,08,13,08,07,20.50
2016,08,13,08,08,20.60
2016,08,13,08,09,20.60
2016,08,13,08,10,20.70
2016,08,13,08,11,20.80
2016,08,13,08,12,20.90
2016,08,13,08,13,20.90
2016,08,13,08,14,21.00
2016,08,13,08,15,21.10
2016,08,13,08,16,21.10
2016,08,13,08,17,21.20
2016,08,13,08,18,21.30
2016,08,13,08,19,21.30
2016,08,13,08,20,21.40
2016,08,13,08,21,21.50
2016,08,13,08,22,21.60
2016,08,13,08,23,21.70
2016,08,13,08,24,21.70
2016,08,13,08,25,21.80
2016,08,13,08,26,21.80
2016,08,13,08,27,21.80
2016,08,13,08,28,21.90
2016,08,13,08,29,21.90
2016,08,13,08,30,22.00
2016,08,13,08,31,22.00
2016,08,13,08,32,22.10
2016,08,13,08,33,22.20
2016,08,13,08,34,22.30
2016,08,13,08,35,22.40
2016,08,13,08,36,22.40
2016,08,13,08,37,22.50
2016,08,13,08,38,22.60
2016,08,13,08,39,22.70
2016,08,13,08,40,22.70
2016,08,13,08,41,22.80
2016,08,13,08,42,22.80
2016,08,13,08,43,22.80
2016,08,13,08,44,22.90
2016,08,13,08,45,22.90
2016,08,13,08,46,23.00
2016,08,13,08,47,23.00
2016,08,13,08,48,23.10
2016,08,13,08,49,23.10
2016,08,13,08,50,23.10
2016,08,13,08,51,23.10
2016,08,13,08,52,23.20
2016,08,13,08,53,23.20
2016,08,13,08,54,23.20
2016,08,13,08,55,23.30
2016,08,13,08,56,23.30
2016,08,13,08,57,23.40
2016,08,13,08,58,23.50
2016,08,13,08,59,23.60
2016,08,13,09,00,23.60
2016,08,13,09,01,23.70
2016,08,13,09,02,23.70
2016,08,13,09,03,23.80
2016,08,13,09,04,23.80
2016,08,13,09,05,23.90
2016,08,13,09,06,23.90
2016,08,13,09,07,24.00
2016,08,13,09,08,24.00
2016,08,13,09,09,24.10
2016,08,13,09,10,24.10
2016,08,13,09,11,24.00
2016,08,13,09,12,24.00
2016,08,13,09,13,24.10
2016,08,13,09,14,24.10
2016,08,13,09,15,24.10
2016,08,13,09,16,24.10
2016,08,13,09,17,24.10
2016,08,13,09,18,24.20
2016,08,13,09,19,24.20
2016,08,13,09,20,24.10
2016,08,13,09,21,24.10
2016,08,13,09,22,24.10
2016,08,13,09,23,24.10
2016,08,13,09,24,24.10
2016,08,13,09,25,24.20
2016,08,13,09,26,24.20
2016,08,13,09,27,24.30
2016,08,13,09,28,24.30
2016,08,13,09,29,24.30
2016,08,13,09,30,24.40
2016,08,13,09,31,24.40
2016,08,13,09,32,24.40
2016,08,13,09,33,24.30
2016,08,13,09,34,24.20
2016,08,13,09,35,24.20
2016,08,13,09,36,24.10
2016,08,13,09,37,24.10
2016,08,13,09,38,24.00
2016,08,13,09,39,24.00
2016,08,13,09,40,24.00
2016,08,13,09,41,23.90
2016,08,13,09,42,23.80
2016,08,13,09,43,23.80
2016,08,13,09,44,23.70
2016,08,13,09,45,23.70
2016,08,13,09,46,23.70
2016,08,13,09,47,23.70
2016,08,13,09,48,23.70
2016,08,13,09,49,23.80
2016,08,13,09,50,23.80
2016,08,13,09,51,23.80
2016,08,13,09,52,23.90
2016,08,13,09,53,24.00
2016,08,13,09,54,24.10
2016,08,13,09,55,24.20
2016,08,13,09,56,24.20
2016,08,13,09,57,24.20
2016,08,13,09,58,24.20
2016,08,13,09,59,24.20
2016,08,13,10,00,24.20
2016,08,13,10,01,24.30
2016,08,13,10,02,24.30
2016,08,13,10,03,24.30
2016,08,13,10,04,24.40
2016,08,13,10,05,24.30
2016,08,13,10,06,24.30
2016,08,13,10,07,24.30
2016,08,13,10,08,24.20
2016,08,13,10,09,24.20
2016,08,13,10,10,24.20
2016,08,13,10,11,24.30
2016,08,13,10,12,24.30
2016,08,13,10,13,24.40
2016,08,13,10,14,24.40
2016,08,13,10,15,24.40
2016,08,13,10,16,24.40
2016,08,13,10,17,24.40
2016,08,13,10,18,24.40
2016,08,13,10,19,24.40
2016,08,13,10,20,24.40
2016,08,13,10,21,24.40
2016,08,13,10,22,24.40
2016,08,13,10,23,24.40
2016,08,13,10,24,24.30
2016,08,13,10,25,24.30
2016,08,13,10,26,24.20
2016,08,13,10,27,24.10
2016,08,13,10,28,24.10
2016,08,13,10,29,24.00
2016,08,13,10,30,23.90
2016,08,13,10,31,23.90
2016,08,13,10,32,23.90
2016,08,13,10,33,24.00
2016,08,13,10,34,24.00
2016,08,13,10,35,24.10
2016,08,13,10,36,24.20
2016,08,13,10,37,24.20
2016,08,13,10,38,24.30
2016,08,13,10,39,24.30
2016,08,13,10,40,24.30
2016,08,13,10,41,24.30
2016,08,13,10,42,24.30
2016,08,13,10,43,24.40
2016,08,13,10,44,24.50
2016,08,13,10,45,24.60
2016,08,13,10,46,24.70
2016,08,13,10,47,24.80
2016,08,13,10,48,24.90
2016,08,13,10,49,25.00
2016,08,13,10,50,25.20
2016,08,13,10,51,25.30
2016,08,13,10,52,25.40
2016,08,13,10,53,25.60
2016,08,13,10,54,25.70
2016,08,13,10,55,25.80
2016,08,13,10,56,25.90
2016,08,13,10,57,26.00
2016,08,13,10,58,26.10
2016,08,13,10,59,26.10
2016,08,13,11,00,26.10
2016,08,13,11,01,26.10
2016,08,13,11,02,26.10
2016,08,13,11,03,26.10
2016,08,13,11,04,26.00
2016,08,13,11,05,26.00
2016,08,13,11,06,25.90
2016,08,13,11,07,25.90
2016,08,13,11,08,25.90
2016,08,13,11,09,25.90
2016,08,13,11,10,25.90
2016,08,13,11,11,25.90
2016,08,13,11,12,25.90
2016,08,13,11,13,25.80
2016,08,13,11,14,25.80
2016,08,13,11,15,25.70
2016,08,13,11,16,25.70
2016,08,13,11,17,25.70
2016,08,13,11,18,25.60
2016,08,13,11,19,25.60
2016,08,13,11,20,25.60
2016,08,13,11,21,25.60
2016,08,13,11,22,25.50
2016,08,13,11,23,25.40
2016,08,13,11,24,25.30
2016,08,13,11,25,25.20
2016,08,13,11,26,25.10
2016,08,13,11,27,25.10
2016,08,13,11,28,25.10
2016,08,13,11,29,25.10
2016,08,13,11,30,25.10
2016,08,13,11,31,25.00
2016,08,13,11,32,24.90
2016,08,13,11,33,24.90
2016,08,13,11,34,24.90
2016,08,13,11,35,24.90
2016,08,13,11,36,24.80
2016,08,13,11,37,24.80
2016,08,13,11,38,24.90
2016,08,13,11,39,24.90
2016,08,13,11,40,25.00
2016,08,13,11,41,25.00
2016,08,13,11,42,25.00
2016,08,13,11,43,25.00
2016,08,13,11,44,25.10
2016,08,13,11,45,25.20
2016,08,13,11,46,25.20
2016,08,13,11,47,25.30
2016,08,13,11,48,25.30
2016,08,13,11,49,25.30
2016,08,13,11,50,25.30
2016,08,13,11,51,25.40
2016,08,13,11,52,25.50
2016,08,13,11,53,25.60
2016,08,13,11,54,25.60
2016,08,13,11,55,25.70
2016,08,13,11,56,25.70
2016,08,13,11,57,25.70
2016,08,13,11,58,25.70
2016,08,13,11,59,25.70
2016,08,13,12,00,25.80
2016,08,13,12,01,25.80
2016,08,13,12,02,25.90
2016,08,13,12,03,25.90
2016,08,13,12,04,26.00
2016,08,13,12,05,26.10
2016,08,13,12,06,26.10
2016,08,13,12,07,26.10
2016,08,13,12,08,26.10
2016,08,13,12,09,26.10
2016,08,13,12,10,26.10
2016,08,13,12,11,26.00
2016,08,13,12,12,26.10
2016,08,13,12,13,26.10
2016,08,13,12,14,26.10
2016,08,13,12,15,26.20
2016,08,13,12,16,26.30
2016,08,13,12,17,26.30
2016,08,13,12,18,26.40
2016,08,13,12,19,26.40
2016,08,13,12,20,26.40
2016,08,13,12,21,26.30
2016,08,13,12,22,26.30
2016,08,13,12,23,26.20
2016,08,13,12,24,26.20
2016,08,13,12,25,26.20
2016,08,13,12,26,26.20
2016,08,13,12,27,26.30
2016,08,13,12,28,26.30
2016,08,13,12,29,26.30
2016,08,13,12,30,26.30
2016,08,13,12,31,26.40
2016,08,13,12,32,26.50
2016,08,13,12,33,26.50
2016,08,13,12,34,26.50
2016,08,13,12,35,26.50
2016,08,13,12,36,26.40
2016,08,13,12,37,26.40
2016,08,13,12,38,26.40
2016,08,13,12,39,26.40
2016,08,13,12,40,26.30
2016,08,13,12,41,26.30
2016,08,13,12,42,26.20
2016,08,13,12,43,26.00
2016,08,13,12,44,25.90
2016,08,13,12,45,25.80
2016,08,13,12,46,25.80
2016,08,13,12,47,25.80
2016,08,13,12,48,25.70
2016,08,13,12,49,25.70
2016,08,13,12,50,25.70
2016,08,13,12,51,25.70
2016,08,13,12,52,25.80
2016,08,13,12,53,25.90
2016,08,13,12,54,25.90
2016,08,13,12,55,26.00
2016,08,13,12,56,26.10
2016,08,13,12,57,26.20
2016,08,13,12,58,26.20
2016,08,13,12,59,26.30
2016,08,13,13,00,26.30
2016,08,13,13,01,26.40
2016,08,13,13,02,26.50
2016,08,13,13,03,26.60
2016,08,13,13,04,26.70
2016,08,13,13,05,26.80
2016,08,13,13,06,26.80
2016,08,13,13,07,26.90
2016,08,13,13,08,26.90
2016,08,13,13,09,26.80
2016,08,13,13,10,26.80
2016,08,13,13,11,26.80
2016,08,13,13,12,26.80
2016,08,13,13,13,26.70
2016,08,13,13,14,26.70
2016,08,13,13,15,26.60
2016,08,13,13,16,26.60
2016,08,13,13,17,26.60
2016,08,13,13,18,26.60
2016,08,13,13,19,26.70
2016,08,13,13,20,26.80
2016,08,13,13,21,26.80
2016,08,13,13,22,26.80
2016,08,13,13,23,26.90
2016,08,13,13,24,27.00
2016,08,13,13,25,27.10
2016,08,13,13,26,27.20
2016,08,13,13,27,27.30
2016,08,13,13,28,27.30
2016,08,13,13,29,27.40
2016,08,13,13,30,27.40
2016,08,13,13,31,27.40
2016,08,13,13,32,27.50
2016,08,13,13,33,27.50
2016,08,13,13,34,27.60
2016,08,13,13,35,27.60
2016,08,13,13,36,27.60
2016,08,13,13,37,27.70
2016,08,13,13,38,27.70
2016,08,13,13,39,27.70
2016,08,13,13,40,27.70
2016,08,13,13,41,27.70
2016,08,13,13,42,27.70
2016,08,13,13,43,27.60
2016,08,13,13,44,27.60
2016,08,13,13,45,27.60
2016,08,13,13,46,27.70
2016,08,13,13,47,27.70
2016,08,13,13,48,27.70
2016,08,13,13,49,27.80
2016,08,13,13,50,27.80
2016,08,13,13,51,27.90
2016,08,13,13,52,27.90
2016,08,13,13,53,28.00
2016,08,13,13,54,28.00
2016,08,13,13,55,28.00
2016,08,13,13,56,27.90
2016,08,13,13,57,27.90
2016,08,13,13,58,27.80
2016,08,13,13,59,27.90
2016,08,13,14,00,27.90
2016,08,13,14,01,27.90
2016,08,13,14,02,27.90
2016,08,13,14,03,28.00
2016,08,13,14,04,28.10
2016,08,13,14,05,28.10
2016,08,13,14,06,28.00
2016,08,13,14,07,28.00
2016,08,13,14,08,28.10
2016,08,13,14,09,28.10
2016,08,13,14,10,28.10
2016,08,13,14,11,28.20
2016,08,13,14,12,28.20
2016,08,13,14,13,28.30
2016,08,13,14,14,28.40
2016,08,13,14,15,28.40
2016,08,13,14,16,28.40
2016,08,13,14,17,28.40
2016,08,13,14,18,28.40
2016,08,13,14,19,28.40
2016,08,13,14,20,28.40
2016,08,13,14,21,28.40
2016,08,13,14,22,28.50
2016,08,13,14,23,28.50
2016,08,13,14,24,28.50
2016,08,13,14,25,28.50
2016,08,13,14,26,28.50
2016,08,13,14,27,28.50
2016,08,13,14,28,28.50
2016,08,13,14,29,28.40
2016,08,13,14,30,28.40
2016,08,13,14,31,28.40
2016,08,13,14,32,28.40
2016,08,13,14,33,28.40
2016,08,13,14,34,28.40
2016,08,13,14,35,28.40
2016,08,13,14,36,28.40
2016,08,13,14,37,28.30
2016,08,13,14,38,28.30
2016,08,13,14,39,28.20
2016,08,13,14,40,28.20
2016,08,13,14,41,28.20
2016,08,13,14,42,28.10
2016,08,13,14,43,28.10
2016,08,13,14,44,28.00
2016,08,13,14,45,28.00
2016,08,13,14,46,28.00
2016,08,13,14,47,28.00
2016,08,13,14,48,27.90
2016,08,13,14,49,27.90
2016,08,13,14,50,27.90
2016,08,13,14,51,27.90
2016,08,13,14,52,27.90
2016,08,13,14,53,27.90
2016,08,13,14,54,28.00
2016,08,13,14,55,28.00
2016,08,13,14,56,28.10
2016,08,13,14,57,28.10
2016,08,13,14,58,28.10
2016,08,13,14,59,28.10
2016,08,13,15,00,28.10
2016,08,13,15,01,28.10
2016,08,13,15,02,28.10
2016,08,13,15,03,28.10
2016,08,13,15,04,28.10
2016,08,13,15,05,28.10
2016,08,13,15,06,28.10
2016,08,13,15,07,28.00
2016,08,13,15,08,27.90
2016,08,13,15,09,27.90
2016,08,13,15,10,27.90
2016,08,13,15,11,27.90
2016,08,13,15,12,28.00
2016,08,13,15,13,28.00
2016,08,13,15,14,28.00
2016,08,13,15,15,28.00
2016,08,13,15,16,28.00
2016,08,13,15,17,28.00
2016,08,13,15,18,28.00
2016,08,13,15,19,28.00
2016,08,13,15,20,28.10
2016,08,13,15,21,28.10
2016,08,13,15,22,28.10
2016,08,13,15,23,28.10
2016,08,13,15,24,28.10
2016,08,13,15,25,28.10
2016,08,13,15,26,28.00
2016,08,13,15,27,27.90
2016,08,13,15,28,27.90
2016,08,13,15,29,27.80
2016,08,13,15,30,27.80
2016,08,13,15,31,27.80
2016,08,13,15,32,27.80
2016,08,13,15,33,27.90
2016,08,13,15,34,27.90
2016,08,13,15,35,27.90
2016,08,13,15,36,27.90
2016,08,13,15,37,27.90
2016,08,13,15,38,27.90
2016,08,13,15,39,27.90
2016,08,13,15,40,27.90
2016,08,13,15,41,27.80
2016,08,13,15,42,27.80
2016,08,13,15,43,27.70
2016,08,13,15,44,27.60
2016,08,13,15,45,27.50
2016,08,13,15,46,27.50
2016,08,13,15,47,27.40
2016,08,13,15,48,27.40
2016,08,13,15,49,27.40
2016,08,13,15,50,27.30
2016,08,13,15,51,27.30
2016,08,13,15,52,27.20
2016,08,13,15,53,27.20
2016,08,13,15,54,27.20
2016,08,13,15,55,27.20
2016,08,13,15,56,27.10
2016,08,13,15,57,27.20
2016,08,13,15,58,27.20
2016,08,13,15,59,27.30
2016,08,13,16,00,27.30
2016,08,13,16,01,27.40
2016,08,13,16,02,27.50
2016,08,13,16,03,27.60
2016,08,13,16,04,27.60
2016,08,13,16,05,27.60
2016,08,13,16,06,27.50
2016,08,13,16,07,27.50
2016,08,13,16,08,27.40
2016,08,13,16,09,27.40
2016,08,13,17,04,26.70
2016,08,13,17,05,26.70
2016,08,13,17,06,26.70
2016,08,13,17,07,26.60
2016,08,13,17,08,26.50
2016,08,13,17,09,26.40
2016,08,13,17,10,26.40
2016,08,13,17,11,26.30
2016,08,13,17,12,26.30
2016,08,13,17,13,26.30
2016,08,13,17,14,26.20
2016,08,13,17,15,26.20
2016,08,13,17,16,26.10
2016,08,13,17,17,26.10
2016,08,13,17,18,26.00
2016,08,13,17,19,26.00
2016,08,13,17,20,25.90
2016,08,13,17,21,25.80
2016,08,13,17,22,25.70
2016,08,13,17,23,25.60
2016,08,13,17,24,25.40
2016,08,13,17,25,25.30
2016,08,13,17,26,25.20
2016,08,13,17,27,25.10
2016,08,13,17,28,25.10
2016,08,13,17,29,25.00
2016,08,13,17,30,24.90
2016,08,13,17,31,24.80
2016,08,13,17,32,24.70
2016,08,13,17,33,24.60
2016,08,13,17,34,24.50
2016,08,13,17,35,24.50
2016,08,13,17,36,24.40
2016,08,13,17,37,24.40
2016,08,13,17,38,24.40
2016,08,13,17,39,24.40
2016,08,13,17,40,24.30
2016,08,13,17,41,24.30
2016,08,13,17,42,24.30
2016,08,13,17,43,24.20
2016,08,13,17,44,24.10
2016,08,13,17,45,24.00
2016,08,13,17,46,24.00
2016,08,13,17,47,23.90
2016,08,13,17,48,23.80
2016,08,13,17,49,23.80
2016,08,13,17,50,23.80
2016,08,13,17,51,23.70
2016,08,13,17,52,23.70
2016,08,13,17,53,23.70
2016,08,13,17,54,23.70
2016,08,13,17,55,23.70
2016,08,13,17,56,23.70
2016,08,13,17,57,23.70
2016,08,13,17,58,23.70
2016,08,13,17,59,23.70
2016,08,13,18,00,23.70
2016,08,13,18,01,23.70
2016,08,13,18,02,23.70
2016,08,13,18,03,23.70
2016,08,13,18,04,23.70
2016,08,13,18,05,23.70
2016,08,13,18,06,23.70
2016,08,13,18,07,23.70
2016,08,13,18,08,23.70
2016,08,13,18,09,23.70
2016,08,13,18,10,23.70
2016,08,13,18,11,23.80
2016,08,13,18,12,23.80
2016,08,13,18,13,23.80
2016,08,13,18,14,23.80
2016,08,13,18,15,23.80
2016,08,13,18,16,23.80
2016,08,13,18,17,23.80
2016,08,13,18,18,23.80
2016,08,13,18,19,23.80
2016,08,13,18,20,23.80
2016,08,13,18,21,23.80
2016,08,13,18,22,23.80
2016,08,13,18,23,23.80
2016,08,13,18,24,23.80
2016,08,13,18,25,23.80
2016,08,13,18,26,23.80
2016,08,13,18,27,23.80
2016,08,13,18,28,23.80
2016,08,13,18,29,23.80
2016,08,13,18,30,23.80
2016,08,13,18,31,23.80
2016,08,13,18,32,23.80
2016,08,13,18,33,23.80
2016,08,13,18,34,23.90
2016,08,13,18,35,23.90
2016,08,13,18,36,24.00
2016,08,13,18,37,24.00
2016,08,13,18,38,24.00
2016,08,13,18,39,24.00
2016,08,13,18,40,24.00
2016,08,13,18,41,24.10
2016,08,13,18,42,24.10
2016,08,13,18,43,24.10
2016,08,13,18,44,24.10
2016,08,13,18,45,24.10
2016,08,13,18,46,24.20
2016,08,13,18,47,24.20
2016,08,13,18,48,24.20
2016,08,13,18,49,24.20
2016,08,13,18,50,24.30
2016,08,13,18,51,24.30
2016,08,13,18,52,24.30
2016,08,13,18,53,24.40
2016,08,13,18,54,24.40
2016,08,13,18,55,24.50
2016,08,13,18,56,24.50
2016,08,13,18,57,24.60
2016,08,13,18,58,24.60
2016,08,13,18,59,24.60
2016,08,13,19,00,24.60
2016,08,13,19,01,24.70
2016,08,13,19,02,24.70
2016,08,13,19,03,24.60
2016,08,13,19,04,24.60
2016,08,13,19,05,24.60
2016,08,13,19,06,24.60
2016,08,13,19,07,24.60
2016,08,13,19,08,24.60
2016,08,13,19,09,24.50
2016,08,13,19,10,24.50
2016,08,13,19,11,24.50
2016,08,13,19,12,24.50
2016,08,13,19,13,24.40